Regional Weather Roundup
Issued by NWS

Home | Current Version | Previous Version | Text Only | Print | Product List | Glossary Off
Versions: 1 2 3 4 5 6 7 8 9 10 11 12 13 14 15 16 17 18 19 20 21 22 23 24 25 26 27 28 29 30 31 32 33 34 35 36 37 38 39 40 41 42 43 44 45 46 47 48 49 50

000
ASUS45 KTFX 252019
RWRMT
MONTANA HOURLY WEATHER ROUNDUP
NATIONAL WEATHER SERVICE GREAT FALLS MT
119 PM MST THU DEC 25 2014

NOTE: "FAIR" INDICATES FEW OR NO CLOUDS BELOW 12000 FEET WITH NO
SIGNIFICANT WEATHER AND/OR OBSTRUCTIONS TO VISIBILITY.

* THESE STATIONS ARE NOT UNDER NWS QUALITY CONTROL. THEY DO NOT
   REPORT WEATHER SUCH AS PRECIPITATION OR FOG.

MTZ001>007-043-252100-
WEST OF THE DIVIDE
CITY           SKY/WX    TMP DP  RH WIND       PRES   REMARKS
KALISPELL      CLOUDY    27  23  85 CALM      29.97S
MISSOULA       CLOUDY    28  28 100 CALM      29.96S
BUTTE          CLOUDY    23  14  68 NW9       29.84S WCI  13
MULLAN PASS    HAZE      23  18  81 VRB5      29.85S VSB M1/4 WCI  16
* ESSEX        N/A       24  16  71 N/A        N/A
* HAMILTON APT PTCLDY    37  27  67 CALM      29.93S
* LIBBY APT    SUNNY     30  25  82 CALM      30.00F
* LINCOLN      N/A       28  19  69 S3         N/A
* LOOKOUT PASS N/A       24  21  88 N5         N/A   WCI  18
* POLSON       N/A       29  26  89 E1         N/A
* RONAN APT    PTCLDY    30  27  89 N5         N/A   WCI  25
* SEELEY LAKE  N/A       33  22  64 NE1        N/A
* THOMP F APT  SUNNY     21   9  60 N10G24     N/A   WCI  10
* YAAK HILL    N/A       31  28  89 N/A        N/A
$$

MTZ008-052>055-252100-
SOUTHWEST MONTANA
CITY           SKY/WX    TMP DP  RH WIND       PRES   REMARKS
BOZEMAN        CLOUDY    25  19  78 SW5       29.84S WCI  19
DILLON         CLOUDY    25  18  75 NE7       29.82R WCI  17
* W YELLOWSTON CLOUDY    20  12  71 N5G14      N/A   WCI  13
* THREE FORKS  CLOUDY    27  27 100 N11G18     N/A   WCI  17
* BOULDER HILL N/A       18  15  88 N8         N/A   WCI   8
* MONIDA PASS  N/A       17  12  81 NW23G29    N/A   WCI  -1
* RAYNOLDS PAS N/A       15  14  96 NW24G34    N/A   WCI  -4
* WHITEHALL    N/A       27  16  63 NE10G16    N/A   WCI  18
* WISE RIVER   N/A       26  14  60 N/A        N/A
$$

MTZ009>010-012-014-046-048-049-054-252100-
EAST SLOPES AND CENTRAL MONTANA
CITY           SKY/WX    TMP DP  RH WIND       PRES   REMARKS
CUT BANK       CLOUDY    16  14  92 CALM      29.89F
GREAT FALLS    CLOUDY    25  21  85 W3        29.92F
HELENA         CLOUDY    27  19  72 W8        29.91S WCI  19
MALMSTROM AFB  PTSUNNY   23  19  85 NW2       29.95S
* CONRAD       SUNNY     19  18  96 CALM       N/A
* DEARBORN     N/A       27  21  78 S6         N/A   WCI  20
* EAST GLACIER N/A       14  11  88 E4         N/A
* MONARCH      N/A       18  15  88 NW4        N/A
* PENDROY      N/A       22  18  85 S7         N/A   WCI  13
* ROGERS PASS  N/A       20  14  77 SE5G10     N/A   WCI  13
* SWEET GRASS  N/A       25  18  75 SW6        N/A   WCI  18
* WHITE SULPH  N/A       21  14  74 NW10G15    N/A   WCI  10
$$

MTZ011-013-016-021-035-040-045-047-050-051-252100-
NORTH CENTRAL MONTANA
CITY           SKY/WX    TMP DP  RH WIND       PRES   REMARKS
HAVRE          CLOUDY    25  19  78 W10       29.96S WCI  15
LEWISTOWN      CLOUDY    21  18  88 NW9       29.88S WCI  11
* CHINOOK      PTCLDY    27  19  72 W8        29.96S WCI  19
* CHESTER      N/A       26  18  72 NW6        N/A   WCI  19
* DENTON       N/A       22  19  88 NW9        N/A   WCI  12
* GEYSER       N/A       21  16  81 W12        N/A   WCI   9
* JUDITH GAP   N/A       19  19 100 VRB13      N/A   WCI   6
* LOMA         N/A       27  21  78 W5         N/A   WCI  21
$$

MTZ017>020-022>027-061-062-252100-
NORTHEAST MONTANA
CITY           SKY/WX    TMP DP  RH WIND       PRES   REMARKS
GLASGOW        CLOUDY    25  16  69 NW14      29.93R WCI  13
GLENDIVE       CLOUDY    25  18  75 N13G20    29.90R WCI  13
JORDAN         CLOUDY    27  19  72 NW14      29.91R WCI  16
SIDNEY         CLOUDY    27  18  69 NW13      29.92R WCI  16
WOLF POINT     CLOUDY    25  18  75 N12       29.95R WCI  14
* BEAVER HILL  N/A       22  18  85 NW12G17    N/A   WCI  10
* CIRCLE       N/A       24  19  81 NW7G13     N/A   WCI  16
* LINDSAY DVD  N/A       21  16  81 NW22G27    N/A   WCI   5
* NAVAJO       N/A       18  14  84 NW17       N/A   WCI   3
* PLENTYWOOD A SUNNY     19  16  88 NW20      29.89R WCI   3
* POPLAR APT   PTCLDY    23  16  74 N/A       29.93R
* SACO         N/A       25  18  75 NW7        N/A   WCI  17
$$

MTZ028>042-056>058-252100-
SOUTHCENTRAL AND SOUTHEAST MONTANA
CITY           SKY/WX    TMP DP  RH WIND       PRES   REMARKS
BAKER          CLOUDY    21  18  88 N14       29.85R WCI   8
BILLINGS       CLOUDY    27  21  78 NE8       29.88S WCI  19
LIVINGSTON     CLOUDY    25  18  75 E9        29.84R WCI  16
MILES CITY     CLOUDY    25  19  78 N12       29.90R WCI  14
* BIG TIMBER A CLOUDY    21  18  88 N5        29.87R WCI  14
* FORSYTH APT  CLOUDY    25  21  85 N7        29.92R WCI  17
* LAUREL APT   CLOUDY    25  16  69 N5         N/A   WCI  19
* ROUNDUP APT  CLOUDY    25  18  75 N/A        N/A
* ALZADA       N/A       24  20  85 NW10       N/A   WCI  14
* HYSHAM       N/A       23  18  81 NE2        N/A
* REED POINT   N/A       27  20  75 VRB6G11    N/A   WCI  20
$$

REGIONAL REPORTS...DAKOTAS
CITY           SKY/WX    TMP DP  RH WIND       PRES   REMARKS
WILLISTON      CLOUDY    27  19  72 NW16      29.88R WCI  15
DICKINSON      CLOUDY    25  18  75 NW20      29.81R WCI  11
BEACH          N/A       23  19  85 N18       29.86S WCI   9
CROSBY         CLOUDY    23  19  85 NW18G23   29.89R WCI   9
TIOGA          CLOUDY    23  23 100 N18G26    29.86R WCI   9
WATFORD CITY   N/A       25  19  78 NW14      29.85R WCI  13
BISMARCK       CLOUDY    28  21  75 NW14      29.83R WCI  17
GRAND FORKS    CLOUDY    28  23  81 N12       29.79R WCI  18
FARGO          CLOUDY    30  25  82 NW12      29.79R WCI  20
BUFFALO SD     CLOUDY    27  19  72 N14       29.73R WCI  16
RAPID CITY     LGT SNOW  27  23  85 N21       29.74S VSB 3/4  WCI  13
$$

REGIONAL REPORTS...WYOMING/IDAHO/WASHINGTON
CITY           SKY/WX    TMP DP  RH WIND       PRES   REMARKS
GILLETTE       LGT SNOW  21  18  88 N18       29.76R VSB 1 1/2 WCI   6
SHERIDAN       LGT SNOW  25  21  85 NW16      29.83S VSB 1    WCI  12
CODY           CLOUDY    21  19  92 N14       29.78R VSB 2 1/2 WCI   8
YELLOWSTONE LA CLOUDY    16  10  77 CALM      29.65S
SALMON         CLOUDY    32  18  56 N14       29.86R WCI  22
MULLAN PASS    HAZE      23  18  81 VRB5      29.85S VSB M1/4 WCI  16
SAND POINT     CLOUDY    32  28  85 CALM      30.04S
SPOKANE        SUNNY     34  27  76 SW5       30.02S WCI  29
$$

REGIONAL REPORTS...ALBERTA
CITY           SKY/WX    TMP DP  RH WIND       PRES   REMARKS
CALGARY        PTSUNNY   25  21  85 S12       29.80F WCI  14
LETHBRIDGE     PTSUNNY   30  21  69 S8        29.89F WCI  22
MEDICINE HAT   CLOUDY    21  18  88 SW7       29.96F WCI  12
EDMONTON       LGT SNOW  16  12  84 SE8       29.89F WCI   5
WATERTON GATE  N/A       30  16  56 SW14G21    N/A   WCI  19
CARDSTON       N/A       25  18  75 SE5        N/A   WCI  19
MILK RIVER     N/A       27  19  72 S7         N/A   WCI  19
$$

REGIONAL REPORTS...SASKATCHEWAN
CITY           SKY/WX    TMP DP  RH WIND       PRES   REMARKS
SWIFT CURRENT  LGT SNOW   5   3  91 NW20      29.91F WCI -15
REGINA         LGT SNOW  12   7  80 NW18      29.93R WCI  -5
VAL MARIE      N/A       21  16  81 NW12       N/A   WCI   9
ASSINIBOIA     N/A       14  10  84 NW17       N/A   WCI  -2

$$




USA.gov is the U.S. government's official web portal to all federal, state and local government web resources and services.